DW0051 Weather Reports


Display with metric or nautical units.
time (UTC)temp
F
wind
direction
speed
MPH
gust
MPH
rain 1hr
in
rain 24hr
in
rain mn
in
humidity
%
barometer
mb
20260905214516 67 332 0.0 5.0 0.00 0.05 0.05 70 1023.9
20260905213517 67 349 0.0 2.0 0.00 0.05 0.05 70 1023.8
20260905212516 67 225 0.0 6.0 0.00 0.05 0.05 70 1023.7
20260905211516 67 272 0.0 4.0 0.00 0.05 0.05 68 1023.7
20260905210516 67 277 0.0 2.0 0.00 0.05 0.05 68 1023.7
20260905205516 67 278 0.0 2.0 0.00 0.05 0.05 68 1023.6
20260905204516 67 267 0.0 3.0 0.00 0.05 0.05 67 1023.7
20260905203517 67 206 0.0 1.0 0.00 0.05 0.05 66 1023.5
20260905202517 68 206 0.0 3.0 0.00 0.05 0.05 66 1023.4
20260905201517 68 263 0.0 3.0 0.00 0.05 0.05 65 1023.5
20260905200516 68 245 0.0 5.0 0.00 0.05 0.05 65 1023.3
20260905195516 68 0.0 5.0 0.00 0.05 0.05 65 1023.3
20260905194516 68 226 1.0 5.0 0.00 0.05 0.05 66 1023.1
20260905193516 68 243 0.0 4.0 0.00 0.05 0.05 66 1023.1
20260905192516 69 0.0 0.0 0.00 0.05 0.05 66 1023.0
20260905191517 69 244 0.0 5.0 0.00 0.05 0.05 65 1023.0
20260905190516 69 0.0 3.0 0.00 0.05 0.05 65 1022.9
20260905185516 69 236 1.0 8.0 0.00 0.05 0.05 66 1022.7
20260905184516 68 225 1.0 6.0 0.00 0.05 0.05 67 1022.6
20260905183516 69 211 0.0 2.0 0.00 0.05 0.05 67 1022.6
20260905182516 69 0.0 0.0 0.00 0.05 0.05 65 1022.3
20260905181517 70 0.0 0.0 0.00 0.05 0.05 64 1022.2
20260905180517 70 211 0.0 4.0 0.00 0.05 0.05 63 1022.1
20260905175516 71 211 1.0 6.0 0.00 0.05 0.05 62 1021.9
20260905174516 71 237 0.0 3.0 0.00 0.05 0.05 61 1021.8
20260905173536 72 231 1.0 8.0 0.00 0.05 0.05 60 1021.7
20260905172536 72 227 2.0 9.0 0.00 0.05 0.05 59 1021.6
20260905171516 72 226 2.0 13.0 0.00 0.05 0.05 59 1021.6
20260905170516 73 219 2.0 12.0 0.00 0.05 0.05 58 1021.6
20260905165537 73 229 2.0 11.0 0.00 0.05 0.05 57 1021.6
20260905164516 73 219 1.0 8.0 0.00 0.05 0.05 57 1021.4
20260905163516 73 210 1.0 9.0 0.00 0.05 0.05 56 1021.4
20260905162556 74 233 3.0 16.0 0.00 0.05 0.05 56 1021.3
20260905161516 74 218 2.0 14.0 0.00 0.05 0.05 55 1021.3
20260905160516 74 230 3.0 14.0 0.00 0.05 0.05 55 1021.3
20260905155516 75 228 3.0 12.0 0.00 0.05 0.05 54 1021.3
20260905154517 75 215 4.0 12.0 0.00 0.05 0.05 53 1021.2
20260905153536 76 208 2.0 12.0 0.00 0.05 0.05 53 1021.2
20260905152516 76 221 3.0 9.0 0.00 0.05 0.05 52 1021.1
20260905151516 77 220 3.0 18.0 0.00 0.05 0.05 52 1021.0
20260905150516 77 222 1.0 11.0 0.00 0.05 0.05 51 1021.0
20260905145516 77 209 2.0 10.0 0.00 0.05 0.05 52 1021.0
20260905144516 77 233 2.0 20.0 0.00 0.05 0.05 52 1021.0
20260905143516 77 242 2.0 11.0 0.00 0.05 0.05 52 1021.1
20260905142516 77 215 2.0 17.0 0.00 0.05 0.05 52 1021.1
20260905141516 77 220 2.0 16.0 0.00 0.05 0.05 52 1021.1
20260905140516 77 204 2.0 12.0 0.00 0.05 0.05 53 1021.1
20260905135516 76 233 2.0 14.0 0.00 0.05 0.05 54 1021.2
20260905134516 75 211 3.0 17.0 0.00 0.05 0.05 55 1021.3
20260905133516 76 240 5.0 14.0 0.00 0.05 0.05 54 1021.3
20260905132516 76 224 4.0 17.0 0.00 0.05 0.05 54 1021.5
20260905131516 76 218 3.0 14.0 0.00 0.05 0.05 56 1021.5
20260905130515 76 217 3.0 13.0 0.00 0.05 0.05 55 1021.7
20260905125516 75 232 2.0 16.0 0.00 0.05 0.05 55 1021.8
20260905124516 76 225 3.0 14.0 0.00 0.05 0.05 56 1021.9
20260905123536 75 230 3.0 15.0 0.00 0.05 0.05 58 1021.8
20260905122516 75 311 2.0 10.0 0.00 0.05 0.05 58 1021.9
20260905121515 74 219 2.0 13.0 0.00 0.05 0.05 59 1021.8
20260905120516 74 214 4.0 14.0 0.00 0.05 0.05 59 1021.8
20260905115515 74 221 3.0 16.0 0.00 0.05 0.05 60 1021.8
20260905114535 74 257 2.0 14.0 0.00 0.05 0.05 60 1021.9
20260905113515 73 255 1.0 14.0 0.00 0.05 0.05 61 1022.0
20260905112515 73 228 2.0 16.0 0.00 0.05 0.05 61 1021.9
20260905111515 73 213 2.0 11.0 0.00 0.05 0.05 62 1021.8
20260905110556 73 238 2.0 16.0 0.00 0.05 0.05 65 1021.8
20260905105515 72 252 3.0 17.0 0.00 0.05 0.05 66 1021.7
20260905104515 71 200 4.0 17.0 0.00 0.05 0.05 69 1021.6
20260905103535 70 209 2.0 12.0 0.00 0.05 0.05 72 1021.6
20260905102515 69 235 1.0 10.0 0.00 0.05 0.05 74 1021.8
20260905101516 68 259 1.0 8.0 0.00 0.05 0.05 75 1021.9
20260905100515 68 227 1.0 11.0 0.00 0.05 0.05 75 1022.0
20260905095515 67 244 1.0 14.0 0.00 0.05 0.05 77 1022.0
20260905094516 68 197 1.0 8.0 0.00 0.05 0.05 76 1021.7
20260905093515 68 175 0.0 6.0 0.00 0.05 0.05 76 1021.8
20260905092515 68 196 0.0 7.0 0.00 0.05 0.05 77 1021.8
20260905091515 66 229 1.0 9.0 0.01 0.05 0.05 79 1021.8
20260905090516 66 289 0.0 3.0 0.02 0.05 0.05 80 1021.7
20260905085518 65 0.0 0.0 0.02 0.05 0.05 83 1021.7
20260905084517 64 0.0 0.0 0.02 0.05 0.05 85 1021.5
20260905083518 64 0.0 0.0 0.02 0.05 0.05 86 1021.8
20260905082517 63 0.0 0.0 0.02 0.05 0.05 85 1021.9
20260905081517 63 0.0 0.0 0.02 0.04 0.04 80 1022.3
20260905080558 64 0.0 6.0 0.01 0.03 0.03 77 1022.2
20260905075538 64 0.0 0.0 0.00 0.02 0.02 76 1022.3
20260905074517 63 0.0 0.0 0.00 0.02 0.02 77 1022.3
20260905073517 63 0.0 0.0 0.00 0.02 0.02 77 1022.5
20260905072517 63 0.0 3.0 0.00 0.02 0.02 77 1022.1
20260905071537 63 0.0 0.0 0.00 0.02 0.02 77 1022.6
20260905070517 63 0.0 0.0 0.00 0.02 0.02 78 1022.3
20260905065517 63 0.0 0.0 0.00 0.02 0.02 78 1021.6
20260905064518 63 0.0 0.0 0.00 0.02 0.02 77 1021.8
20260905063517 63 0.0 0.0 0.00 0.02 0.02 76 1022.1
20260905062517 64 0.0 0.0 0.00 0.02 0.02 75 1022.0
20260905061517 64 0.0 7.0 0.00 0.02 0.02 73 1021.5
20260905060517 65 0.0 0.0 0.00 0.02 0.02 72 1021.2
20260905055537 65 276 0.0 7.0 0.00 0.02 0.02 70 1021.1
20260905054517 64 248 0.0 4.0 0.00 0.02 0.02 74 1021.0
20260905053518 64 0.0 5.0 0.00 0.02 0.02 78 1020.4
20260905052517 63 0.0 1.0 0.00 0.02 0.02 85 1020.5
20260905051517 63 0.0 0.0 0.01 0.02 0.02 88 1019.7
20260905050517 63 86 0.0 5.0 0.02 0.02 0.02 88 1019.3
20260905045517 63 0.0 0.0 0.02 0.02 0.02 89 1019.0
20260905044517 64 0.0 0.0 0.02 0.02 0.02 88 1018.8
20260905043518 64 0.0 0.0 0.02 0.02 0.02 85 1018.7
20260905042517 66 0.0 0.0 0.02 0.02 0.02 82 1018.6
20260905041517 67 0.0 0.0 0.01 0.02 0.02 75 1018.9
20260905040517 67 0.0 0.0 0.00 0.01 0.01 74 1018.7
20260905035537 68 0.0 0.0 0.00 0.01 0.01 72 1018.4
20260905034517 68 0.0 4.0 0.00 0.01 0.01 72 1018.3
20260905033516 69 331 0.0 3.0 0.00 0.01 0.01 74 1018.2
20260905032517 69 58 0.0 3.0 0.01 0.01 0.01 76 1018.2
20260905031517 70 0.0 0.0 0.01 0.01 0.01 80 1017.0
20260905030516 69 213 0.0 3.0 0.01 0.01 0.01 81 1016.2
20260905025517 69 238 0.0 1.0 0.01 0.01 0.01 82 1016.0
20260905024516 72 0.0 0.0 0.01 0.01 0.01 75 1016.0
20260905023516 76 223 0.0 11.0 0.01 0.01 0.01 64 1015.8
20260905022516 76 0.0 0.0 0.00 0.00 0.00 55 1015.4
20260905021516 75 0.0 0.0 0.00 0.00 0.00 55 1015.4
20260905020517 75 0.0 0.0 0.00 0.00 0.00 56 1015.3
20260905015516 75 0.0 0.0 0.00 0.00 0.00 57 1015.2
20260905014516 73 0.0 0.0 0.00 0.00 0.00 59 1015.1
20260905013516 72 0.0 0.0 0.00 0.00 0.00 61 1015.0
20260905012516 71 0.0 0.0 0.00 0.00 0.00 63 1015.0
20260905011516 70 0.0 0.0 0.00 0.00 0.00 66 1015.0
20260905010516 68 0.0 0.0 0.00 0.00 0.00 69 1014.9
20260905005516 68 0.0 0.0 0.00 0.00 0.00 70 1014.8
20260905004537 67 0.0 0.0 0.00 0.00 0.00 71 1014.8
20260905003516 67 0.0 0.0 0.00 0.00 0.00 71 1014.8
20260905002516 67 0.0 0.0 0.00 0.00 0.00 72 1014.8
20260905001516 67 0.0 0.0 0.00 0.00 0.00 72 1014.7
20260905000536 67 0.0 0.0 0.00 0.00 0.00 72 1014.7
20260904235537 66 0.0 0.0 0.00 0.00 0.00 72 1014.7
20260904234516 66 0.0 0.0 0.00 0.00 0.00 73 1014.6
20260904233516 66 0.0 0.0 0.00 0.00 0.00 73 1014.6
20260904232516 66 0.0 0.0 0.00 0.00 0.00 73 1014.5
20260904231516 66 0.0 0.0 0.00 0.00 0.00 73 1014.5
20260904230515 67 0.0 0.0 0.00 0.00 0.00 72 1014.4
20260904225516 67 0.0 0.0 0.00 0.00 0.00 72 1014.3
20260904224516 67 0.0 0.0 0.00 0.00 0.00 71 1014.1
20260904223515 67 0.0 0.0 0.00 0.00 0.00 72 1014.1
20260904222516 67 0.0 0.0 0.00 0.00 0.00 71 1014.2
20260904221515 67 0.0 0.0 0.00 0.00 0.00 71 1014.2
20260904220516 67 0.0 0.0 0.00 0.00 0.00 71 1014.3
20260904215515 67 0.0 0.0 0.00 0.00 0.00 71 1014.3